{"data":{"norad_id":67262,"intl_designator":"2025-313Q","name":"2025-313Q","alt_names":[],"object_type":"PAYLOAD","status":"ACTIVE","operator":null,"country":"TBD","launch_date":"2025-12-28","launch_site_code":"VOSTO","launch_vehicle":null,"mission":null,"orbit_class":"UNKNOWN","rcs_meters":null,"size_class":null,"mass_kg":null,"dimensions":null,"purposes":[],"wikipedia_slug":null,"has_3d_model":false,"image_url":null,"decayed_at":null,"tle_current":{"epoch":"2026-09-20T22:45:31.907808Z","epoch_age_seconds":64290,"freshness":"FRESH","line1":"1 67262U 25313Q   26263.94828597  .00007083  00000+0  28227-3 0  9999","line2":"2 67262  97.3856 337.4867 0014294  38.2176 322.0073 15.25426545 40558","mean_motion":15.25426545,"eccentricity":0.0014294,"inclination_deg":97.3856,"raan_deg":337.4867,"arg_perigee_deg":38.2176,"mean_anomaly_deg":322.0073,"bstar":0.00028227,"rev_number":4055,"period_min":94.399825722188,"perigee_km":479.68829231906,"apogee_km":499.32150698178,"semimajor_km":6867.6418996504,"source":"CELESTRAK","updated_at":"2026-09-21T09:00:16.514688Z"}}}